THORAD DELTA 1 DEB, 8398

Orbit data source: Space-Track

THORAD DELTA 1 DEB, 8398 is space debris in SSO originally from a launch on Fri, 15 Nov 1974 UTC launched from the Air Force Western Test Range (AFWTR). Debris objects in space refer to the collection of defunct objects orbiting the Earth. Examples of debris include non-operational satellites, rocket bodies, and fragments generated from explosions, collisions, or faulty payload assembly.

Loading next visibility...
Identifier
8398, 1974-089CA
Orbit
SSO
Country
Flag of USUS
Related business
Manufacturer
Unknown
Mission
Spacecraft
Bus & Motor
Unknown
Mass
Unknown
Launch date (UTC)
1974-11-15 (51 years ago)
Launch vehicle
Unknown
Launch site
Air Force Western Test Range (AFWTR)
Object type
Payload
Rocket body
Debris
Shape & HBR
Unknown shape, 1.2 m
Radar Cross Section
Large (>1 m²)

Expand to show TLE details & history
Last TLE update: 23 hours ago

TLE from 23 hours ago
0 THORAD DELTA 1 DEB
1 08398U 74089CA  25349.94620991 -.00000030  00000-0  14812-3 0  9992
2 08398 102.5820 334.5307 0077158 298.6627 116.6748 12.26591969 42774
Epoch: 2025-12-15T22:42Z
TLE epoch observation values (Epoch: 2025-12-15T22:42:32.536Z)
Latitude
54.21974°
Longitude
-108.89301°
Altitude
1,600.523 km
Speed
7.062 km/s
True Right ascension
21h 06m 19s
True Declination
54° 04' 25"
Sunlit
Object was in daylight at epoch
Visualization orbit readout
Latitude
Unknown
Longitude
Unknown
Altitude
Unknown
Speed
Unknown
Apparent Right ascension
Unknown
Apparent Declination
Unknown
Sunlit
N/A
Visualization observer readout
Local Sidereal Time
20:33:11
Azimuth
Unknown
Elevation
Unknown
Doppler factor
Unknown
Orbital elements
Apogee altitude
1,622.847 km
Perigee altitude
1,500.324 km
Semi-major axis
7,939.723 km
Eccentricity
0.00772
Inclination
102.582°
RAAN
334.5307°
Arg. of periapsis
298.6627°
True anomaly
117.46143°
Mean anomaly
116.6748°
Eccentric anomaly
117.06846°
Mean motion
3.06786 °/min
Orbital period
117.35 mins
BSTAR
0.00014812
Loading maneuver chart data...
Computing Atmospheric mass density...

Documentation

Showing up to 5 results
|